EHI
0 0 0 0 0 0 0 0 0 1 1 2 2 1 0 0 0 0 0 0 0 0 0 0 0 0 0 0 0 0 0 0 0 0 0 0 0 0 0 0 0 0 0 0
0 0 0 0 0 0 0 0 0 1 1 1 1 1 0 0 0 0 0 0 0 0 0 0 0 0 0 0 0 0 0 0 0 0 0 0 0 0 0 0 0 0 0 0
0 0 0 0 0 0 0 0 0 1 1 0 0 0 0 0 0 0 0 0 0 0 0 0 0 0 0 0 0 0 0 0 0 0 0 0 0 0 0 0 0 0 0 0
0 0 0 0 0 0 0 0 0 0 0 0 0 0 0 0 0 0 0 0 0 0 0 0 0 0 0 0 0 0 0 0 0 0 0 0 0 0 0 0 0 0 0 0
0 0 0 0 0 0 0 0 0 0 0 0 0 0 0 0 0 0 0 0 0 0 0 0 0 0 0 0 0 0 0 0 0 0 0 0 0 0 0 0 0 0 0 0
0 0 0 0 0 0 0 0 0 0 0 0 0 0 0 0 0 0 0 0 0 0 0 0 0 0 0 0 0 0 0 0 0 0 0 0 0 0 0 0 0 0 0 0
0 0 0 0 0 0 0 0 0 0 0 0 0 0 0 0 0 0 0 0 0 0 0 0 0 0 0 0 0 0 0 0 0 0 0 0 0 0 0 0 0 0 0 0
0 0 0 0 0 0 0 0 0 0 0 0 0 0 0 0 0 0 0 0 0 0 0 0 0 0 0 0 0 0 0 0 0 0 0 0 0 0 0 0 0 0 0 0
0 0 0 0 0 0 0 0 0 0 0 0 0 0 0 0 0 0 0 0 0 0 0 0 0 0 0 0 0 0 0 0 0 0 0 0 0 0 0 0 0 0 0 0
0 0 0 0 0 0 0 0 0 0 0 0 0 0 0 0 0 0 0 0 0 0 0 0 0 0 0 0 0 0 0 0 0 0 0 0 0 0 0 0 0 0 0 0
0 0 0 0 0 0 0 0 0 0 0 0 0 0 0 0 0 0 0 0 0 0 0 0 0 0 0 0 0 0 0 0 0 0 0 0 0 0 0 0 0 0 0 0
0 0 0 0 0 0 0 0 0 0 0 0 0 0 0 0 0 0 0 0 0 0 0 0 0 0 0 0 0 0 0 0 0 0 0 0 0 0 0 0 0 0 0 0
0 0 0 0 0 0 0 0 0 0 0 0 0 0 0 0 0 0 0 0 0 0 0 0 0 0 0 0 0 0 0 0 0 0 0 0 0 0 0 0 0 0 0 0
0 0 0 0 0 0 0 0 0 0 0 0 0 0 0 0 0 0 0 0 0 0 0 0 0 0 0 0 0 0 0 0 0 0 0 0 0 0 0 0 0 0 0 0
0 0 0 0 0 0 0 0 0 0 0 0 0 0 0 0 0 0 0 0 0 0 0 0 0 0 0 0 0 0 0 0 0 0 0 0 0 0 0 0 0 0 0 0
0 0 0 0 0 0 0 0 0 0 0 0 0 0 0 0 0 0 0 0 0 0 0 0 0 0 0 0 0 0 0 0 0 0 0 0 0 0 0 0 0 0 0 0
0 0 0 0 0 0 0 0 0 0 0 0 0 0 0 0 0 0 0 0 0 0 0 0 0 0 0 0 0 0 0 0 0 0 0 0 0 0 0 0 0 0 0 0
0 0 0 0 0 0 0 0 0 0 0 0 0 0 0 0 0 0 0 0 0 0 0 0 0 0 0 0 0 0 0 0 0 0 0 0 0 0 0 0 0 0 0 0
0 0 0 0 0 0 0 0 0 0 0 0 0 0 0 0 0 0 0 0 0 0 0 0 0 0 0 0 0 0 0 0 0 0 0 0 0 0 0 0 0 0 0 0
0 0 0 0 0 0 0 0 0 0 0 0 0 0 0 0 0 0 0 0 0 0 0 0 0 0 0 0 0 0 0 0 0 0 0 0 0 0 0 0 0 0 0 0
0 0 0 0 0 0 0 0 0 0 0 0 0 0 0 0 0 0 0 0 0 0 0 0 0 0 0 0 0 0 0 0 0 0 0 0 0 0 0 0 0 0 0 0
0 0 0 0 0 0 0 0 0 0 0 0 0 0 0 0 0 0 0 0 0 0 0 0 0 0 0 0 0 0 0 0 0 0 0 0 0 0 0 0 0 0 0 0
0 0 0 0 0 0 0 0 0 0 0 0 0 0 0 0 0 0 0 0 0 0 0 0 0 0 0 0 0 0 0 0 0 0 0 0 0 0 0 0 0 0 0 0
0 0 0 0 0 0 0 0 0 0 0 0 0 0 0 0 0 0 0 0 0 0 0 0 0 0 0 0 0 0 0 0 0 0 0 0 0 0 0 0 0 0 0 0
0 0 0 0 0 0 0 0 0 0 0 0 0 0 0 0 0 0 0 0 0 0 0 0 0 0 0 0 0 0 0 0 0 0 0 0 0 0 0 0 0 0 0 0
0 0 0 0 0 0 0 0 0 0 0 0 0 0 0 0 0 0 0 0 0 0 0 0 0 0 0 0 0 0 0 0 0 0 0 0 0 0 0 0 0 0 0 0
0 0 0 0 0 0 0 0 0 0 0 0 0 0 0 0 0 0 0 0 0 0 0 0 0 0 0 0 0 0 0 0 0 0 0 0 0 0 0 0 0 0 0 0
Wind_Speed
0 1 2 5 8 8 5 2 4 7 12 14 13 13 12 12 12 11 11 11 11 10 9 9 10 9 9 8 8 8 8 8 7 6 6 7 7 6 6 6 6 5 5 4
2 3 5 8 12 9 8 6 9 12 9 9 11 10 11 11 12 12 11 11 11 10 10 9 9 8 7 7 6 7 7 7 6 6 6 6 5 5 5 5 4 4 4 3
1 2 5 8 9 7 6 5 3 5 8 14 13 11 10 10 10 10 10 10 9 9 8 7 6 6 6 5 5 6 6 6 6 5 5 4 5 4 4 3 3 3 2 1
1 4 6 1 2 5 9 9 8 11 12 11 11 10 8 8 10 11 10 9 8 7 7 6 5 5 5 5 6 6 6 5 4 4 4 4 4 3 2 1 1 0 1 1
3 5 4 0 2 0 4 5 5 12 13 13 14 11 8 6 8 9 9 8 7 6 6 5 5 4 6 5 5 5 5 4 3 4 3 3 2 1 1 1 1 1 2 2
4 4 2 2 4 2 7 4 3 9 13 13 9 6 5 7 9 9 8 6 6 6 6 5 4 5 6 5 5 4 3 3 2 2 2 2 0 1 1 1 2 2 2 2
4 4 1 4 4 1 1 4 7 8 10 8 2 5 9 10 9 8 7 7 6 6 5 4 4 5 5 4 3 2 2 2 1 1 1 1 0 1 1 2 2 3 3 3
3 3 2 5 3 2 3 4 7 7 6 8 11 13 11 10 9 8 7 6 6 5 4 3 4 5 4 2 1 2 1 1 0 1 1 1 0 1 1 2 3 3 3 4
4 3 3 2 4 4 6 7 5 6 10 13 12 11 10 9 8 7 6 5 4 5 5 3 3 4 4 1 1 1 1 1 2 2 2 1 1 1 1 2 2 2 3 3
5 3 4 6 6 6 7 8 9 11 12 12 12 10 10 8 6 6 5 5 4 5 5 3 2 3 3 2 2 1 1 2 2 2 2 2 0 1 2 2 2 2 2 2
5 4 6 5 6 9 11 12 12 10 10 10 12 11 9 7 6 5 4 4 4 5 4 3 3 2 3 3 2 1 2 3 2 2 2 1 0 1 2 2 3 3 1 1
6 8 6 4 5 11 12 10 11 12 10 9 9 9 7 6 5 5 5 4 5 4 4 3 3 3 3 3 3 2 2 3 2 2 1 1 2 2 2 1 2 3 3 2
6 7 8 8 8 9 10 10 10 11 10 9 7 8 7 5 4 5 5 5 5 4 4 3 2 3 4 3 3 3 3 3 2 1 1 2 3 3 1 1 2 3 4 5
12 12 9 7 8 9 11 11 10 10 9 9 7 8 7 6 5 5 4 4 4 3 2 2 2 2 3 3 2 3 3 3 2 1 2 2 3 3 2 2 1 3 4 5
7 9 9 9 10 10 10 11 12 10 9 8 7 8 7 7 6 4 4 3 3 2 2 1 1 2 3 2 1 2 2 1 1 1 2 2 3 3 2 2 1 1 2 4
11 12 12 12 12 11 11 12 11 9 8 7 7 7 7 7 5 4 3 3 4 2 2 1 1 3 2 1 1 1 1 1 3 2 2 2 2 2 2 1 1 0 1 2
13 11 12 12 11 11 10 10 9 8 8 8 8 7 7 6 5 3 2 3 3 3 2 2 2 3 2 1 1 1 1 1 3 3 2 3 2 2 2 2 1 0 1 2
13 12 12 13 12 11 10 10 9 9 8 8 8 7 7 6 5 4 3 2 2 0 2 2 2 2 3 3 1 1 1 2 3 3 3 2 3 2 3 2 2 1 1 2
13 14 12 11 11 10 9 9 9 9 8 8 8 6 6 5 5 4 3 3 2 2 3 3 2 2 3 4 4 1 1 3 3 2 3 4 3 3 3 2 2 1 1 1
12 13 12 12 10 10 10 9 9 8 7 7 7 6 5 4 4 4 3 2 3 4 4 1 1 2 3 4 4 1 2 3 4 3 3 3 3 3 3 3 2 2 1 1
14 13 13 12 10 10 10 10 9 8 7 8 7 6 6 5 4 4 3 1 3 2 1 1 2 1 2 4 4 2 3 4 4 4 4 4 4 3 3 2 2 2 2 1
13 12 12 11 10 9 8 8 8 8 8 7 7 6 5 4 3 3 3 3 3 1 2 2 1 1 4 4 3 3 4 4 4 4 4 4 4 4 3 3 2 2 1 1
11 11 11 11 10 9 8 7 8 8 7 7 7 7 6 4 4 4 3 3 2 3 2 1 1 3 6 4 3 3 4 4 4 4 4 4 4 3 3 3 2 2 1 1
10 10 10 9 9 9 8 7 7 6 7 7 7 7 5 3 2 3 4 5 6 4 2 1 1 5 5 3 3 3 4 4 4 4 4 4 3 3 3 3 2 2 2 2
11 10 10 11 10 8 7 7 6 6 6 4 5 6 5 5 5 5 4 5 6 4 2 1 0 3 2 2 3 3 3 3 4 4 4 4 3 3 3 3 3 2 2 3
10 9 9 9 8 6 6 5 5 4 4 4 4 3 3 3 5 5 4 5 6 5 3 2 1 2 2 2 3 3 3 4 5 4 4 4 4 4 3 3 4 3 3 3
9 8 7 6 6 6 6 6 5 5 5 5 5 4 4 5 5 5 5 4 4 4 3 2 2 3 3 3 3 3 3 3 4 4 4 3 3 3 3 4 3 3 3 4
Wind_Direction
210 288 75 46 24 28 48 122 150 144 142 152 146 139 133 127 123 118 114 107 101 96 91 85 82 79 79 78 76 80 80 76 74 73 70 68 65 63 61 61 67 72 79 82
18 43 68 47 25 34 43 56 107 115 111 127 124 122 129 133 132 127 121 114 108 102 96 90 88 86 81 78 78 82 84 82 78 77 73 70 67 62 61 58 59 64 75 83
337 332 55 32 6 34 50 35 103 119 131 137 133 135 138 134 128 123 117 111 106 99 94 92 90 93 91 86 84 83 83 83 83 85 79 72 73 67 57 51 55 58 73 108
89 59 70 354 353 75 74 55 80 103 119 126 123 111 106 120 124 119 114 109 105 101 96 90 90 88 87 84 85 84 81 80 81 84 79 71 65 55 37 34 51 13 250 209
86 90 105 22 315 258 95 65 93 120 122 119 117 101 87 95 108 113 114 113 111 110 107 99 89 86 87 85 85 86 86 81 81 87 81 69 58 26 352 351 323 277 262 241
86 99 123 274 300 144 104 108 150 138 139 142 138 129 140 125 113 109 107 107 108 104 98 93 87 90 91 89 92 98 105 99 87 87 89 92 110 302 306 312 303 304 300 289
80 96 113 295 304 140 130 188 163 152 150 152 131 129 131 125 116 115 113 112 109 104 99 101 98 94 93 94 108 136 131 113 82 74 137 178 227 311 330 349 359 352 344 338
79 92 252 309 24 120 170 126 129 133 131 117 111 112 117 119 119 119 115 112 109 102 95 95 103 100 99 108 150 144 131 125 273 288 249 174 168 357 18 33 30 12 10 4
130 177 229 25 90 108 115 110 109 113 123 126 121 121 120 119 120 121 119 115 110 109 99 90 105 113 116 162 166 145 145 277 277 288 290 255 188 152 58 51 56 33 27 9
85 96 96 85 86 85 99 108 113 121 125 124 122 123 122 122 123 122 119 119 115 111 110 110 127 138 164 189 175 168 229 271 277 285 285 289 231 150 131 113 93 64 31 354
100 128 92 78 101 108 102 107 110 112 116 121 123 125 125 126 127 126 125 123 125 131 140 159 173 192 216 207 181 194 258 280 290 282 261 231 126 116 151 179 174 161 184 252
182 185 144 146 132 121 115 120 125 122 116 120 124 125 125 126 128 128 127 126 132 145 160 185 199 222 236 224 204 208 260 278 277 274 240 172 131 76 52 141 149 161 186 214
137 130 118 122 116 114 117 123 124 124 127 126 123 125 124 123 127 128 129 136 151 168 180 193 207 236 253 243 222 218 237 258 270 252 182 165 160 161 186 312 300 280 279 295
112 106 100 112 117 114 117 117 115 113 117 121 122 122 120 120 124 132 147 165 168 171 183 191 200 250 271 260 232 243 249 252 230 195 179 169 170 175 177 182 284 310 304 301
114 115 125 121 113 114 117 119 119 119 119 118 122 125 125 128 139 154 163 151 130 130 153 162 206 288 301 300 288 282 263 235 185 161 151 149 152 149 155 166 190 298 327 329
116 114 119 122 125 127 126 128 128 131 130 127 129 133 136 139 144 147 146 136 129 146 173 160 262 293 316 359 356 338 307 181 140 133 121 126 135 137 143 144 131 32 330 320
129 136 137 136 137 137 136 137 138 137 134 133 139 138 134 129 127 139 159 160 161 176 189 198 263 301 327 350 332 280 249 164 137 125 126 137 139 142 145 143 148 174 294 310
147 148 148 146 145 143 141 139 137 136 138 141 138 135 137 143 159 182 184 160 138 175 252 251 276 318 341 343 330 262 180 174 160 152 147 143 136 134 135 137 141 130 323 337
135 138 139 139 141 140 140 140 141 140 140 139 140 147 156 165 177 183 171 153 166 218 266 279 326 14 359 349 352 354 130 151 147 142 140 130 115 116 122 124 113 95 43 4
135 138 138 138 137 137 140 143 143 142 145 144 145 148 156 170 171 164 153 174 213 222 243 256 48 39 6 335 347 20 110 132 135 131 123 117 117 117 117 121 112 89 59 24
141 142 142 142 141 142 145 145 144 148 151 149 150 160 171 182 178 161 152 196 264 262 248 87 81 43 348 343 6 55 100 120 122 123 124 123 118 115 115 113 102 86 69 37
143 143 143 144 142 144 147 146 146 149 151 156 161 163 165 176 177 166 179 197 224 170 113 95 97 32 11 20 40 67 97 116 116 115 117 123 125 123 122 120 112 96 73 44
143 143 144 145 146 147 148 149 151 152 157 162 165 168 175 182 173 157 188 230 208 156 137 165 159 40 37 44 54 75 95 110 116 118 124 130 133 133 132 129 121 112 98 59
142 144 145 143 139 141 149 158 154 157 162 163 172 176 171 164 189 205 184 184 186 172 171 211 62 51 55 64 74 85 92 103 115 121 121 121 123 123 125 127 122 110 95 75
144 144 144 144 146 153 158 157 152 156 157 167 183 185 172 166 172 188 185 189 194 190 209 259 24 79 83 98 101 99 99 109 121 124 121 121 121 119 119 122 120 112 99 85
146 150 153 156 156 155 152 149 154 162 159 169 192 194 175 174 172 173 183 197 206 209 217 238 172 135 144 147 141 132 119 111 108 113 126 129 126 123 121 116 109 107 104 101
143 143 145 148 154 156 154 156 161 172 174 173 188 192 174 172 179 187 193 199 208 215 218 211 178 159 153 145 138 136 134 129 126 127 130 129 128 127 127 121 115 108 104 102